• In Kazakhstan
  • List of Countries
  • For 7 days
  • Water Temperature
  • Satellite Maps
  • Weather Map
  • News
  • Weather Widgets
  • user-avatar
    Login

    Hourly Weather Canillo

    Today, 12 November, Monday

    Time Temperature Precipitation Wind Pressure Humidity
    00:00 +4°C° 0 mm 3 mps 616 mmHg 88%
    01:00 +4°C° 0 mm 3 mps 616 mmHg 88%
    02:00 +4°C° 0 mm 3 mps 616 mmHg 89%
    03:00 +4°C° 0 mm 3 mps 616 mmHg 89%
    04:00 +3°C° 0 mm 3 mps 617 mmHg 89%
    05:00 +3°C° 0 mm 3 mps 617 mmHg 89%
    06:00 +4°C° 0 mm 2 mps 617 mmHg 88%
    07:00 +5°C° 0 mm 2 mps 618 mmHg 84%
    08:00 +6°C° 0 mm 2 mps 619 mmHg 80%
    09:00 +7°C° 0 mm 2 mps 619 mmHg 76%
    10:00 +8°C° 0 mm 2 mps 620 mmHg 70%
    11:00 +9°C° 0 mm 3 mps 621 mmHg 64%
    12:00 +11°C° 0 mm 3 mps 621 mmHg 58%
    13:00 +10°C° 0 mm 3 mps 621 mmHg 59%
    14:00 +10°C° 0 mm 3 mps 621 mmHg 61%
    15:00 +10°C° 0 mm 3 mps 620 mmHg 62%
    16:00 +8°C° 0 mm 2 mps 620 mmHg 69%
    17:00 +6°C° 0 mm 2 mps 619 mmHg 75%
    18:00 +5°C° 0 mm 2 mps 619 mmHg 81%
    19:00 +4°C° 0 mm 2 mps 619 mmHg 79%
    20:00 +5°C° 0 mm 1 mps 620 mmHg 77%
    21:00 +5°C° 0 mm 1 mps 620 mmHg 75%
    22:00 +5°C° 0 mm 1 mps 620 mmHg 74%
    23:00 +5°C° 0 mm 1 mps 620 mmHg 73%

    Tomorrow, 13 November, Tuesday

    Time Temperature Precipitation Wind Pressure Humidity
    00:00 +5°C° 0 mm 1 mps 621 mmHg 72%
    01:00 +5°C° 0 mm 1 mps 621 mmHg 71%
    02:00 +5°C° 0 mm 1 mps 621 mmHg 70%
    03:00 +4°C° 0 mm 1 mps 621 mmHg 69%
    04:00 +4°C° 0 mm 1 mps 621 mmHg 69%
    05:00 +4°C° 0 mm 1 mps 622 mmHg 69%
    06:00 +4°C° 0 mm 1 mps 622 mmHg 69%
    07:00 +5°C° 0 mm 1 mps 623 mmHg 67%
    08:00 +7°C° 0 mm 1 mps 624 mmHg 65%
    09:00 +8°C° 0 mm 1 mps 625 mmHg 63%
    10:00 +9°C° 0 mm 1 mps 625 mmHg 60%
    11:00 +10°C° 0 mm 1 mps 626 mmHg 58%
    12:00 +11°C° 0 mm 1 mps 626 mmHg 55%
    13:00 +11°C° 0 mm 1 mps 626 mmHg 58%
    14:00 +11°C° 0 mm 1 mps 626 mmHg 62%
    15:00 +10°C° 0 mm 1 mps 625 mmHg 66%
    16:00 +9°C° 0 mm 1 mps 625 mmHg 73%
    17:00 +7°C° 0 mm 1 mps 624 mmHg 80%
    18:00 +4°C° 0 mm 0 mps 624 mmHg 87%
    19:00 +5°C° 0 mm 1 mps 624 mmHg 86%
    20:00 +5°C° 0 mm 1 mps 624 mmHg 85%
    21:00 +5°C° 0 mm 1 mps 624 mmHg 83%
    22:00 +5°C° 0 mm 1 mps 624 mmHg 82%
    23:00 +4°C° 0 mm 1 mps 624 mmHg 80%

    Day after tomorrow, 14 November, Wednesday

    Time Temperature Precipitation Wind Pressure Humidity
    00:00 +4°C° 0 mm 1 mps 623 mmHg 79%
    01:00 +4°C° 0 mm 1 mps 623 mmHg 77%
    02:00 +4°C° 0 mm 1 mps 623 mmHg 76%
    03:00 +4°C° 0 mm 1 mps 623 mmHg 74%
    04:00 +4°C° 0 mm 1 mps 623 mmHg 74%
    05:00 +4°C° 0 mm 1 mps 622 mmHg 75%
    06:00 +4°C° 0 mm 1 mps 622 mmHg 75%
    07:00 +4°C° 0 mm 2 mps 623 mmHg 72%
    08:00 +6°C° 0 mm 2 mps 624 mmHg 69%
    09:00 +8°C° 0 mm 2 mps 624 mmHg 67%
    10:00 +9°C° 0 mm 2 mps 625 mmHg 64%
    11:00 +10°C° 0 mm 2 mps 625 mmHg 62%
    12:00 +11°C° 0 mm 3 mps 625 mmHg 59%
    13:00 +10°C° 0 mm 3 mps 624 mmHg 62%
    14:00 +10°C° 0 mm 3 mps 624 mmHg 65%
    15:00 +10°C° 0 mm 3 mps 624 mmHg 67%
    16:00 +8°C° 0 mm 2 mps 623 mmHg 74%
    17:00 +6°C° 0 mm 2 mps 622 mmHg 81%
    18:00 +5°C° 0 mm 2 mps 621 mmHg 88%
    19:00 +4°C° 0 mm 2 mps 621 mmHg 85%
    20:00 +4°C° 0 mm 2 mps 621 mmHg 82%
    21:00 +4°C° 0 mm 2 mps 621 mmHg 79%
    22:00 +3°C° 0 mm 2 mps 621 mmHg 79%
    23:00 +3°C° 0 mm 2 mps 621 mmHg 79%

    15 November, Thursday

    Time Temperature Precipitation Wind Pressure Humidity
    00:00 +3°C° 0 mm 2 mps 621 mmHg 79%
    01:00 +3°C° 0 mm 2 mps 620 mmHg 79%
    02:00 +3°C° 0 mm 2 mps 620 mmHg 80%
    03:00 +4°C° 0 mm 2 mps 620 mmHg 81%
    04:00 +4°C° 0 mm 2 mps 620 mmHg 81%
    05:00 +4°C° 0 mm 2 mps 620 mmHg 81%
    06:00 +4°C° 0 mm 2 mps 620 mmHg 82%
    07:00 +5°C° 0 mm 2 mps 621 mmHg 78%
    08:00 +6°C° 0 mm 2 mps 621 mmHg 74%
    09:00 +8°C° 0 mm 2 mps 622 mmHg 70%
    10:00 +8°C° 0 mm 2 mps 622 mmHg 67%
    11:00 +9°C° 0 mm 3 mps 623 mmHg 64%
    12:00 +10°C° 0 mm 3 mps 623 mmHg 61%
    13:00 +10°C° 0.1 mm 3 mps 623 mmHg 63%
    14:00 +10°C° 0.1 mm 3 mps 622 mmHg 66%
    15:00 +9°C° 0.1 mm 2 mps 622 mmHg 68%
    16:00 +8°C° 0 mm 2 mps 621 mmHg 74%
    17:00 +6°C° 0 mm 2 mps 621 mmHg 80%
    18:00 +6°C° 0 mm 1 mps 620 mmHg 86%
    19:00 +5°C° 0 mm 1 mps 620 mmHg 85%
    20:00 +5°C° 0 mm 1 mps 620 mmHg 84%
    21:00 +5°C° 0 mm 1 mps 621 mmHg 83%
    22:00 +5°C° 0 mm 1 mps 621 mmHg 83%
    23:00 +4°C° 0 mm 1 mps 620 mmHg 83%

    16 November, Friday

    Time Temperature Precipitation Wind Pressure Humidity
    00:00 +4°C° 0 mm 1 mps 620 mmHg 82%
    01:00 +4°C° 0 mm 1 mps 620 mmHg 82%
    02:00 +4°C° 0 mm 1 mps 620 mmHg 83%
    03:00 +4°C° 0 mm 1 mps 620 mmHg 83%
    04:00 +4°C° 0 mm 1 mps 620 mmHg 83%
    05:00 +4°C° 0 mm 1 mps 620 mmHg 83%
    06:00 +4°C° 0 mm 1 mps 620 mmHg 83%
    07:00 +5°C° 0 mm 1 mps 621 mmHg 80%
    08:00 +5°C° 0 mm 2 mps 621 mmHg 76%
    09:00 +7°C° 0 mm 2 mps 622 mmHg 72%
    10:00 +8°C° 0 mm 2 mps 622 mmHg 68%
    11:00 +9°C° 0 mm 2 mps 623 mmHg 65%
    12:00 +10°C° 0 mm 3 mps 623 mmHg 61%
    13:00 +9°C° 0 mm 3 mps 623 mmHg 63%
    14:00 +9°C° 0 mm 3 mps 622 mmHg 65%
    15:00 +9°C° 0 mm 3 mps 622 mmHg 67%
    16:00 +7°C° 0 mm 2 mps 621 mmHg 74%
    17:00 +5°C° 0 mm 2 mps 621 mmHg 81%
    18:00 +4°C° 0 mm 2 mps 620 mmHg 88%
    19:00 +4°C° 0 mm 1 mps 620 mmHg 87%
    20:00 +4°C° 0 mm 1 mps 620 mmHg 87%
    21:00 +3°C° 0 mm 1 mps 620 mmHg 86%
    22:00 +3°C° 0 mm 1 mps 620 mmHg 84%
    23:00 +3°C° 0 mm 1 mps 620 mmHg 81%

    17 November, Saturday

    Time Temperature Precipitation Wind Pressure Humidity
    00:00 +3°C° 0 mm 1 mps 619 mmHg 78%
    01:00 +2°C° 0 mm 1 mps 619 mmHg 76%
    02:00 +1°C° 0 mm 2 mps 619 mmHg 74%
    03:00 +1°C° 0 mm 2 mps 619 mmHg 72%
    04:00 +1°C° 0 mm 2 mps 619 mmHg 71%
    05:00 +1°C° 0 mm 2 mps 619 mmHg 69%
    06:00 +1°C° 0 mm 2 mps 619 mmHg 68%
    07:00 +2°C° 0 mm 2 mps 619 mmHg 67%
    08:00 +4°C° 0 mm 2 mps 620 mmHg 65%
    09:00 +5°C° 0 mm 2 mps 621 mmHg 64%
    10:00 +5°C° 0 mm 3 mps 621 mmHg 63%
    11:00 +7°C° 0 mm 3 mps 621 mmHg 62%
    12:00 +8°C° 0 mm 3 mps 621 mmHg 62%
    13:00 +7°C° 0 mm 3 mps 621 mmHg 64%
    14:00 +7°C° 0 mm 3 mps 621 mmHg 67%
    15:00 +6°C° 0 mm 2 mps 620 mmHg 70%
    16:00 +5°C° 0 mm 2 mps 620 mmHg 77%
    17:00 +4°C° 0 mm 2 mps 619 mmHg 83%
    18:00 +3°C° 0 mm 1 mps 619 mmHg 90%
    19:00 +3°C° 0 mm 1 mps 619 mmHg 90%
    20:00 +3°C° 0 mm 1 mps 619 mmHg 90%
    21:00 +3°C° 0 mm 1 mps 619 mmHg 90%
    22:00 +1°C° 0 mm 2 mps 619 mmHg 90%
    23:00 +1°C° 0 mm 2 mps 618 mmHg 90%
    Show more